Regional Weather Roundup
Issued by NWS

Home | Current Version | Previous Version | Text Only | Print | Product List | Glossary Off
Versions: 1 2 3 4 5 6 7 8 9 10 11 12 13 14 15 16 17 18 19 20 21 22 23 24 25 26 27 28 29 30 31 32 33 34 35 36 37 38 39 40 41 42 43 44 45 46 47 48 49 50

000
ASUS43 KFSD 281002
RWRSD

WEATHER ROUNDUP FOR SOUTH DAKOTA
NATIONAL WEATHER SERVICE SIOUX FALLS SD
500 AM CDT SUN AUG 28 2016

NOTE: "FAIR" INDICATES FEW OR NO CLOUDS BELOW 12,000 FEET WITH NO
SIGNIFICANT WEATHER AND/OR OBSTRUCTIONS TO VISIBILITY.


SDZ001>005-009-010-012>017-281100-
NORTHWEST AND NORTH CENTRAL SOUTH DAKOTA

CITY           SKY/WX    TMP DP  RH WIND       PRES   REMARKS
BUFFALO          N/A     60  55  83 S5        29.84R
FAITH            N/A     59  56  89 S15       29.88S
MOBRIDGE       CLEAR     66  60  81 E10       29.87F
$$

SDZ012>016-024>037-041>051-057-063-072>074-281100-
SOUTHWEST AND SOUTH CENTRAL SOUTH DAKOTA

CITY           SKY/WX    TMP DP  RH WIND       PRES   REMARKS
RAPID CTY ARPT CLEAR     59  51  75 S5        29.92S
PIERRE         CLEAR     66  61  84 SE6       29.89S
CUSTER         CLEAR     53  42  66 W5        30.08S
ELLSWORTH AFB  CLEAR     62  53  72 S7          N/A
PHILIP         CLEAR     69  61  75 VRB3      29.90S
PINE RIDGE     CLEAR     66  61  84 S13G23    29.97S
WINNER         FAIR      71  65  81 S14       29.96S
$$

SDZ004>011-016>023-039-040-281100-
NORTHEAST SOUTH DAKOTA

CITY           SKY/WX    TMP DP  RH WIND       PRES   REMARKS
ABERDEEN       CLEAR     67  63  87 SE12      29.95S
WATERTOWN      CLOUDY    68  64  87 E10       30.05R
BROOKINGS      CLEAR     64  62  93 SE12      30.04R
$$

SDZ017-020-022-023-036>040-048>070-281100-
SOUTHEAST SOUTH DAKOTA

CITY           SKY/WX    TMP DP  RH WIND       PRES   REMARKS
SIOUX FALLS    CLEAR     67  65  93 SE7       30.04R
HURON          CLEAR     66  64  93 S10       29.96R
CHAMBERLAIN    CLEAR     71  66  85 S7        29.95S
MITCHELL       CLEAR     66  64  93 SE9       29.99R
YANKTON        CLEAR     66  63  88 SE5       30.00S
$$

ABBREVIATIONS USED IN REMARKS
   TC - TEMPERATURE IN CELSIUS
  WCI - WIND CHILL INDEX
   HX - HEAT INDEX
  VSB - VISIBILITY





USA.gov is the U.S. government's official web portal to all federal, state and local government web resources and services.